Regional Weather Roundup
Issued by NWS Burlington, VT

Current Version | Previous Version | Text Only | Print | Product List | Glossary On
Versions: 1 2 3 4 5 6 7 8 9 10 11 12 13 14 15 16 17 18 19 20 21 22 23 24 25 26 27 28 29 30 31 32 33 34 35 36 37 38 39 40 41 42 43 44 45 46 47 48 49 50
320
ASUS41 KBTV 220510
RWRBTV
VERMONT REGIONAL WEATHER ROUNDUP
NATIONAL WEATHER SERVICE BURLINGTON VT
1200 AM EST WED FEB 22 2017

NOTE: "FAIR" INDICATES FEW OR NO CLOUDS BELOW 12,000 FEET WITH NO
SIGNIFICANT WEATHER AND/OR OBSTRUCTIONS TO VISIBILITY.

* THESE REPORTS ARE NOT UNDER NWS QUALITY CONTROL AND/OR DO NOT
  REPORT WEATHER SUCH AS PRECIPITATION AND FOG.

VTZ001>019-220600-
_____VERMONT_____


CITY           SKY/WX    TMP DP  RH WIND       PRES   REMARKS
BURLINGTON     CLOUDY    41  24  51 S13G23    29.98F
MONTPELIER     CLOUDY    35  20  54 S6        30.01F WCI  30
MORRISVILLE    CLOUDY    37  21  52 CALM      29.99F
ST. JOHNSBURY*   N/A     38  18  44 MISG      29.99F
LYNDONVILLE*   CLOUDY    34  20  55 SE5       30.01S WCI  30
MIDDLEBURY*    CLOUDY    40  11  31 S8        30.01F
RUTLAND*       CLOUDY    35  24  64 SE6       30.03S WCI  30
SPRINGFIELD    CLOUDY    33  23  66 NW3       30.05F
HIGHGATE*      CLOUDY    40  25  54 S9G18     29.96F
NEWPORT*       CLOUDY    36  19  49 S5        29.97F WCI  32
BENNINGTON     CLOUDY    40  25  55 CALM      30.03F
SUTTON*          N/A     32 N/A N/A MISG        N/A

_____LAKE CHAMPLAIN_____


CITY           SKY/WX    TMP DP  RH WIND       PRES   REMARKS

$$

NYZ007-026>031-035-052-083-087-220600-
_____NORTHERN NEW YORK_____


CITY           SKY/WX    TMP DP  RH WIND       PRES   REMARKS
SARANAC LAKE   CLOUDY    37  28  70 SW12      29.93F WCI  29
MASSENA        CLOUDY    34  31  88 NE3       29.95S
OGDENSBURG*    MOCLDY    42  31  66 S8        29.93F
POTSDAM*       CLOUDY    45  36  70 SW9       29.93S
WATERTOWN      CLOUDY    46  32  58 S9G20     29.95S
FT DRUM        CLOUDY    40  29  65 SE9       29.93F
ALBANY         CLOUDY    40  28  62 S8        30.06R
GLENS FALLS    CLOUDY    39  24  55 SW3       30.04S

$$
NHZ002-005-011-220600-
_____NEW HAMPSHIRE_____


CITY           SKY/WX    TMP DP  RH WIND       PRES   REMARKS
LEBANON        CLOUDY    37  25  61 S5        30.02F
KEENE          CLOUDY    37  26  64 S7        30.05F WCI  32
MT WASHINGTON  CLOUDY    30  27  86 W45G62      N/A  WCI  12
PLYMOUTH       CLOUDY    32  26  80 CALM      30.04F
WHITEFIELD     CLOUDY    32  22  66 NW3       29.98F

$$

_____REGIONAL QUEBEC LOCATIONS_____


CITY           SKY/WX    TMP DP  RH WIND       PRES   REMARKS
MONTREAL       CLOUDY    32  27  80 N3        29.94S
QUEBEC CITY    CLOUDY    30  23  74 S6        29.93F WCI  24
SHERBROOKE     CLOUDY    39  18  41 SW5       29.94F

_____REGIONAL ONTARIO LOCATIONS_____


CITY           SKY/WX    TMP DP  RH WIND       PRES   REMARKS
OTTAWA         CLOUDY    32  30  93 VRB2      29.93S

______KEY______
VSB  - VISIBILITY IN MILES
WCI  - WIND CHILL INDEX
HX   - HEAT INDEX
$$
NNNN




USA.gov is the U.S. government's official web portal to all federal, state and local government web resources and services.